TimeCDT,TemperatureF,Dew PointF,Humidity,Sea Level PressureIn,VisibilityMPH,Wind Direction,Wind SpeedMPH,Gust SpeedMPH,PrecipitationIn,Events,Conditions,WindDirDegrees,DateUTC
12:56 AM,34.0,30.9,89,29.75,6.0,ENE,9.2,-,N/A,,Overcast,60,2014-03-19 05:56:00
1:11 AM,34.0,30.9,89,29.72,6.0,ENE,8.1,-,N/A,,Overcast,60,2014-03-19 06:11:00
1:56 AM,34.0,30.0,85,29.75,6.0,North,4.6,-,N/A,,Overcast,10,2014-03-19 06:56:00
2:56 AM,34.0,30.0,85,29.75,6.0,North,4.6,-,N/A,,Overcast,10,2014-03-19 07:56:00
3:31 AM,34.0,30.0,85,29.71,4.0,North,5.8,-,0.00,Snow,Light Snow,10,2014-03-19 08:31:00
3:45 AM,33.1,30.9,92,29.71,2.0,North,6.9,-,0.00,Snow,Light Snow,360,2014-03-19 08:45:00
3:56 AM,33.1,30.9,92,29.73,1.8,North,6.9,-,0.00,Snow,Light Snow,360,2014-03-19 08:56:00
4:09 AM,33.1,30.9,92,29.70,1.8,North,8.1,-,0.01,Snow,Light Snow,360,2014-03-19 09:09:00
4:22 AM,33.1,32.0,96,29.70,1.5,North,6.9,-,0.01,Snow,Light Snow,360,2014-03-19 09:22:00
4:56 AM,33.1,30.9,92,29.73,2.0,North,6.9,-,0.02,Snow,Light Snow,360,2014-03-19 09:56:00
5:09 AM,33.1,30.9,92,29.71,2.5,North,6.9,-,0.00,Snow,Light Snow,360,2014-03-19 10:09:00
5:56 AM,33.1,30.9,92,29.74,2.5,North,6.9,-,0.00,Snow,Light Snow,350,2014-03-19 10:56:00
6:11 AM,32.0,30.9,96,29.71,3.0,North,6.9,-,0.00,Snow,Light Snow,350,2014-03-19 11:11:00
6:39 AM,32.0,30.0,92,29.72,2.5,NNW,8.1,-,0.00,Snow,Light Snow,340,2014-03-19 11:39:00
6:48 AM,32.0,30.0,92,29.72,3.0,North,6.9,-,0.00,Snow,Light Snow,350,2014-03-19 11:48:00
6:56 AM,30.9,28.9,92,29.76,3.0,NNW,6.9,-,0.00,Snow,Light Snow,330,2014-03-19 11:56:00
7:28 AM,30.0,28.0,92,29.73,2.0,NNW,6.9,-,0.01,Snow,Light Snow,330,2014-03-19 12:28:00
7:41 AM,30.0,28.0,92,29.74,2.0,NNW,8.1,-,0.01,Snow,Light Snow,330,2014-03-19 12:41:00
7:44 AM,30.0,28.0,92,29.74,1.8,NNW,8.1,-,0.01,Snow,Light Snow,330,2014-03-19 12:44:00
7:51 AM,30.2,28.4,93,29.74,1.2,NNW,8.1,-,0.01,Snow,Light Snow,330,2014-03-19 12:51:00
7:56 AM,30.0,28.0,92,29.77,1.2,NNW,10.4,-,0.01,Snow,Light Snow,330,2014-03-19 12:56:00
8:39 AM,28.9,26.1,89,29.75,1.8,NNW,9.2,-,0.00,Snow,Light Snow,330,2014-03-19 13:39:00
8:56 AM,28.9,26.1,89,29.79,1.2,NNW,9.2,-,0.00,Snow,Light Snow,330,2014-03-19 13:56:00
9:35 AM,30.0,25.0,82,29.77,2.5,NNW,13.8,20.7,0.00,Snow,Light Snow,330,2014-03-19 14:35:00
9:42 AM,30.0,25.0,82,29.77,4.0,NNW,13.8,-,0.00,Snow,Light Snow,330,2014-03-19 14:42:00
9:53 AM,30.2,24.8,80,29.77,5.0,NNW,13.8,21.9,0.00,Snow,Light Snow,330,2014-03-19 14:53:00
9:56 AM,30.0,25.0,82,29.80,5.0,NNW,13.8,21.9,0.00,Snow,Light Snow,330,2014-03-19 14:56:00
10:03 AM,30.0,25.0,82,29.77,2.0,NNW,16.1,20.7,0.00,Snow,Light Snow,330,2014-03-19 15:03:00
10:19 AM,30.0,25.0,82,29.78,6.0,NNW,11.5,-,0.00,Snow,Light Snow,330,2014-03-19 15:19:00
10:28 AM,30.0,25.0,82,29.78,7.0,NNW,10.4,-,0.00,Snow,Light Snow,330,2014-03-19 15:28:00
10:56 AM,30.0,25.0,82,29.82,10.0,NW,15.0,-,0.00,,Overcast,320,2014-03-19 15:56:00
11:11 AM,30.9,25.0,79,29.79,10.0,NNW,13.8,21.9,N/A,,Overcast,340,2014-03-19 16:11:00
11:56 AM,30.9,24.1,76,29.84,10.0,NW,16.1,20.7,N/A,,Overcast,320,2014-03-19 16:56:00
12:56 PM,32.0,24.1,73,29.85,10.0,NW,10.4,-,N/A,,Overcast,320,2014-03-19 17:56:00
1:56 PM,33.1,24.1,70,29.85,10.0,NW,17.3,-,N/A,,Overcast,310,2014-03-19 18:56:00
2:56 PM,34.0,25.0,70,29.86,10.0,WNW,17.3,-,N/A,,Overcast,300,2014-03-19 19:56:00
3:56 PM,34.0,24.1,67,29.88,10.0,West,16.1,25.3,N/A,,Overcast,280,2014-03-19 20:56:00
4:12 PM,33.1,23.0,66,29.85,10.0,WNW,16.1,25.3,N/A,,Overcast,300,2014-03-19 21:12:00
4:56 PM,33.1,23.0,66,29.89,10.0,WNW,17.3,-,N/A,,Overcast,290,2014-03-19 21:56:00
5:56 PM,33.1,21.9,64,29.92,10.0,WNW,12.7,-,N/A,,Overcast,290,2014-03-19 22:56:00
6:56 PM,33.1,21.0,61,29.94,10.0,NW,9.2,-,N/A,,Overcast,320,2014-03-19 23:56:00
7:56 PM,33.1,21.9,64,29.95,10.0,West,8.1,-,N/A,,Overcast,260,2014-03-20 00:56:00
8:56 PM,32.0,23.0,69,29.96,10.0,West,6.9,-,N/A,,Overcast,260,2014-03-20 01:56:00
9:56 PM,32.0,23.0,69,29.97,10.0,West,6.9,-,N/A,,Overcast,260,2014-03-20 02:56:00
10:56 PM,32.0,24.1,73,29.97,10.0,West,6.9,-,N/A,,Overcast,260,2014-03-20 03:56:00
11:56 PM,32.0,25.0,75,29.97,10.0,West,8.1,-,N/A,,Overcast,260,2014-03-20 04:56:00